Location: Goettingen
(51.5300°N, 9.9433°E)
Time: 07:13:24
(UTC+01:00)

ISS - Pass Details

Date: 27 November 2021
Orbit: 417 x 422 km, 51.6° (Epoch: 04 December)

Event Time Altitude Azimuth Distance (km) Brightness Sun altitude
Rises 17:01:44 0° 241° (WSW) 2,371 2.8 -6.8°
Reaches altitude 10° 17:03:51 10° 237° (WSW) 1,508 0.8 -7.1°
Maximum altitude 17:07:10 54° 160° (SSE) 518 -3.3 -7.6°
Enters shadow 17:10:30 10° 81° (E) 1,513 -1.6 -8.0°
Drops below altitude 10° 17:10:30 10° 81° (E) 1,513 -1.6 -8.0°
